Dewpoint
58 53 46 42 47 51 50 48 35 41 39 35 35 34 28 36 39 35 35 36 31 32 35 35 35 36 34 34 36 37 39 39 40 36 37 43 58 67 67 67 67 67 67 67 68 69 68 69 70 70 72 71 71 71 70 69 68 67 67 65 64 65 66 66 66 66 67 67 68 69 68 69 69 69 69 68 67 67 66 65 65 65 66 66 66 66 66 67 68 68 68 68 68 68 68 67 67
53 46 42 43 50 48 46 44 38 38 37 34 37 36 37 39 37 36 36 36 35 35 34 34 35 36 41 46 45 47 46 53 43 47 53 63 67 67 67 67 67 67 67 67 67 68 68 68 70 70 72 71 71 71 70 69 68 67 66 66 65 64 65 66 65 66 66 67 69 69 69 69 69 70 69 69 67 67 66 66 65 65 66 67 67 67 68 68 68 68 68 68 68 68 68 67 66
49 42 43 50 52 50 48 45 35 34 34 33 37 38 39 38 37 40 40 39 36 36 35 34 35 37 37 43 40 41 42 55 57 59 61 66 64 65 67 67 67 67 66 67 67 67 68 69 70 70 71 71 70 71 70 69 68 67 66 65 65 65 64 65 65 65 66 68 69 69 69 69 69 69 69 69 68 67 67 67 67 67 68 69 69 68 68 68 68 68 68 68 68 68 68 68 67
42 45 44 50 43 48 43 40 37 37 33 35 33 37 39 37 40 42 42 42 40 38 35 33 36 37 39 42 46 48 50 53 56 61 62 64 61 66 67 67 67 67 66 67 67 67 67 69 70 70 70 70 70 70 70 69 68 66 65 65 65 64 64 65 65 66 66 69 69 69 69 69 69 69 69 69 68 69 70 69 69 69 69 68 68 68 68 68 67 67 67 67 67 68 67 67 67
39 47 47 50 45 41 42 39 36 35 35 36 33 37 41 41 40 39 39 40 41 37 36 35 39 39 41 44 43 47 48 53 56 59 60 62 64 67 67 67 67 66 66 67 67 67 67 69 69 69 69 69 70 69 69 69 68 66 65 65 65 64 65 65 65 65 67 69 70 69 69 69 69 69 69 69 69 70 69 69 69 69 68 68 68 68 69 68 67 65 66 67 67 67 67 66 66
42 50 51 50 41 46 44 38 37 36 37 38 37 40 42 40 37 37 38 38 41 40 37 36 36 36 49 52 50 52 54 54 57 58 61 62 66 67 67 67 66 66 66 67 67 67 67 69 69 69 69 68 67 68 68 66 67 66 65 66 65 63 65 66 65 65 67 70 69 69 69 69 69 69 69 70 69 70 69 69 69 69 68 67 68 68 68 68 67 67 65 66 66 67 67 66 66
38 48 47 45 44 44 39 35 37 37 39 40 41 42 38 34 35 38 37 37 38 38 39 38 36 34 48 49 46 55 56 58 58 58 62 64 66 66 67 66 66 66 66 67 67 67 67 69 69 69 69 68 67 65 65 66 66 66 65 66 64 63 66 66 65 65 68 70 69 69 70 69 69 69 69 70 69 69 69 69 68 68 67 67 67 67 67 67 67 67 67 67 66 67 67 67 67
51 45 45 39 36 38 35 34 36 38 38 43 43 37 35 31 35 38 34 36 36 37 38 39 38 35 34 50 41 54 60 61 61 63 65 66 66 66 66 66 66 66 67 67 67 67 69 68 68 68 69 68 67 66 66 66 66 67 67 66 64 64 67 66 65 66 68 70 69 69 69 69 69 69 69 69 69 69 69 69 68 68 67 67 66 66 66 66 66 67 67 67 67 67 67 67 67
44 46 45 40 36 35 33 34 36 38 40 40 32 33 36 29 35 34 31 34 37 37 37 39 40 36 35 49 50 53 58 63 65 65 66 66 66 66 66 66 66 66 66 67 67 67 68 68 68 68 68 68 68 67 67 67 68 67 68 66 64 65 67 66 65 66 70 70 69 69 69 69 69 69 69 69 69 69 68 68 68 68 67 66 66 66 66 66 66 66 67 67 66 67 67 67 67
41 42 36 35 36 33 29 32 33 35 40 38 28 27 28 27 33 33 30 32 33 35 37 39 39 37 42 47 50 56 57 64 65 65 65 65 66 66 66 66 66 66 66 67 67 67 67 69 68 67 68 68 68 68 68 68 68 68 67 65 64 66 66 66 65 67 69 69 69 69 69 69 69 69 69 69 69 69 69 68 68 67 67 66 66 66 66 66 65 65 65 65 65 66 66 67 67
36 40 41 33 28 29 30 28 34 36 39 37 34 28 27 28 32 32 29 30 34 33 37 36 42 44 46 49 51 55 60 63 65 65 65 65 65 66 66 67 66 66 66 66 67 67 67 67 68 67 67 67 67 68 68 68 68 68 67 65 65 66 66 66 66 68 69 69 69 69 69 69 69 69 68 68 68 68 68 68 67 67 66 66 66 67 66 66 65 65 65 64 64 65 65 66 66
34 35 35 31 27 28 28 29 31 35 36 28 27 27 28 28 29 28 28 29 30 35 38 33 37 41 44 47 52 56 61 61 64 66 66 65 65 65 66 67 66 66 66 66 67 67 67 67 67 68 67 66 67 67 67 68 69 68 68 67 68 67 67 67 68 69 69 69 69 69 69 69 69 69 68 68 68 68 68 68 68 67 67 66 66 66 66 66 65 64 64 64 64 63 64 65 66
35 35 33 28 28 29 31 32 33 39 29 28 27 27 29 30 28 28 28 28 30 33 32 32 32 43 42 51 54 58 60 61 64 66 66 65 65 66 66 66 66 66 66 66 67 66 66 66 67 67 66 66 66 66 67 67 68 68 68 68 69 69 68 69 69 69 69 69 69 69 69 69 69 69 69 68 68 68 69 68 68 68 67 66 66 66 66 66 65 64 64 63 63 63 64 65 66
35 35 31 23 28 30 30 31 29 29 27 27 27 27 28 33 28 28 29 27 30 31 32 32 31 40 53 55 53 56 58 60 62 66 66 66 66 66 66 66 66 66 66 66 66 66 66 66 66 66 66 66 66 66 66 66 67 68 68 68 69 69 69 69 69 69 69 69 69 69 69 69 69 69 68 68 67 67 67 66 67 68 67 66 66 66 66 66 65 64 63 63 63 63 64 65 66
33 36 31 28 26 26 28 27 24 27 29 26 25 27 27 34 29 28 27 26 30 33 33 33 25 50 36 47 48 49 57 60 63 65 66 66 66 66 66 66 66 66 66 67 67 67 66 66 66 65 65 65 66 65 65 66 66 67 67 68 68 69 69 68 68 68 68 68 68 68 68 68 68 67 67 67 66 66 66 66 66 67 66 66 66 66 66 66 65 64 64 63 63 63 64 66 65
37 35 31 27 26 26 26 23 24 28 29 26 25 26 26 26 30 26 24 28 28 32 29 21 25 31 27 27 33 50 59 60 64 65 66 66 66 66 66 67 66 66 66 67 67 67 66 65 65 65 65 65 66 66 65 65 66 66 66 67 67 67 67 67 66 66 66 66 66 66 67 67 67 66 66 65 65 66 66 64 65 66 67 66 66 66 66 66 66 65 64 64 64 63 64 65 64
38 35 28 25 23 25 24 23 23 21 23 26 24 24 26 23 26 28 28 29 25 28 28 25 19 28 25 25 28 47 60 60 61 64 65 65 65 65 66 66 66 66 66 66 67 67 67 65 64 65 64 65 66 67 66 66 66 66 66 66 66 66 66 66 65 64 64 64 64 64 65 66 65 64 64 63 64 64 63 62 64 65 67 67 67 67 67 67 66 65 64 64 64 64 66 65 64
34 30 26 19 23 23 24 22 22 25 25 21 23 24 27 21 26 19 24 23 24 21 20 20 20 24 23 25 26 34 59 59 60 61 61 62 64 63 63 65 66 65 65 66 66 67 67 66 65 64 63 64 67 67 67 65 67 66 65 65 66 66 65 65 65 66 67 65 63 65 65 65 64 63 62 64 61 62 61 62 63 65 65 66 67 67 67 67 66 66 65 65 64 65 65 62 61
27 25 21 19 20 20 25 25 23 23 21 23 24 23 27 23 25 22 18 16 21 21 22 23 23 24 24 24 27 33 56 60 59 59 59 59 60 62 64 65 65 66 65 65 66 66 67 67 66 65 64 63 65 67 67 67 66 66 65 64 65 65 66 66 65 66 65 65 64 64 65 64 63 62 62 62 61 60 61 60 62 63 65 65 66 67 66 67 67 66 65 65 65 65 62 59 59
22 22 19 20 22 21 22 25 23 25 25 24 23 22 23 23 24 27 21 19 19 21 22 23 23 24 24 24 31 43 50 52 55 58 59 59 60 61 62 64 64 65 66 66 65 66 67 67 67 66 65 63 64 66 67 67 67 67 67 66 65 65 65 66 66 65 65 64 64 64 65 63 62 62 64 64 64 60 60 59 60 61 63 64 64 66 66 66 66 66 65 65 65 63 60 58 59
22 22 20 22 22 20 20 22 23 24 26 24 23 22 21 22 25 23 26 23 23 24 25 24 23 24 24 25 34 47 49 51 53 54 57 59 60 61 62 63 64 65 66 67 66 66 66 66 67 67 66 65 64 66 66 67 67 67 67 67 66 66 66 66 66 66 65 64 64 64 63 62 62 61 61 61 60 59 57 57 57 58 59 60 63 61 61 62 63 61 61 62 60 61 61 60 60
22 23 25 22 25 22 23 23 24 23 25 24 22 19 20 24 21 27 31 29 29 30 31 28 26 26 24 28 45 46 48 49 51 54 56 59 59 60 61 61 62 63 64 65 66 66 66 67 67 67 67 66 65 66 66 67 67 67 66 67 66 66 66 66 66 66 65 65 64 64 62 61 61 60 60 60 59 58 57 57 57 57 56 57 58 60 58 58 59 60 60 59 58 59 60 60 60
21 23 27 26 26 23 23 23 23 21 23 19 20 20 22 21 22 29 31 31 32 34 33 29 28 29 35 43 44 45 45 45 46 50 53 53 54 54 57 59 60 61 61 63 64 65 66 67 65 67 67 66 66 66 66 66 66 66 66 66 66 65 65 65 65 65 65 64 63 62 62 61 60 60 59 59 58 57 57 56 56 56 57 57 56 58 57 56 58 58 58 60 59 59 59 58 59
24 24 27 25 27 23 24 23 26 21 20 21 21 28 28 26 24 28 29 30 32 34 34 29 35 41 41 41 42 42 41 42 43 47 49 50 50 50 52 54 56 57 57 60 63 64 64 65 66 67 66 67 66 66 65 65 66 66 66 65 66 65 64 65 65 64 64 64 63 62 62 61 61 59 59 58 57 56 57 56 56 55 56 56 56 57 57 55 55 55 56 56 59 60 60 59 59
26 25 28 27 25 24 25 25 27 24 21 22 29 28 28 29 26 29 28 29 31 34 37 38 38 37 38 38 38 36 37 38 40 43 45 45 46 46 47 48 51 53 54 56 58 60 60 63 65 65 66 66 66 66 65 65 66 65 65 65 65 64 64 64 64 63 63 63 62 61 60 61 59 59 59 58 56 56 55 55 55 56 55 56 56 56 57 56 56 55 56 56 58 59 60 59 58
29 28 29 28 22 24 26 26 26 26 24 27 28 28 28 29 30 28 28 28 30 33 36 36 36 35 35 35 34 33 33 35 37 39 41 42 42 42 42 43 46 49 51 52 55 55 54 56 56 58 59 66 66 66 65 65 65 65 65 65 65 64 64 64 63 63 63 62 62 61 60 60 60 59 58 57 57 56 55 54 54 55 56 56 56 57 56 56 57 55 54 55 56 56 57 58 57
30 30 26 22 22 24 26 26 27 26 24 28 28 28 28 29 28 26 27 27 28 31 32 33 33 33 33 33 32 31 31 32 34 36 38 39 39 39 39 40 41 44 47 48 50 52 52 53 54 54 55 60 65 65 65 65 65 65 65 64 65 64 64 63 63 62 62 62 62 60 60 59 59 58 58 58 57 57 56 55 55 55 55 55 56 57 55 57 56 56 57 56 56 56 56 56 55
28 30 25 22 22 26 26 27 28 27 24 27 27 28 29 29 27 26 26 26 26 28 28 30 31 31 31 30 29 29 29 30 31 33 34 36 36 36 36 36 38 40 42 44 47 48 50 51 53 53 54 56 61 65 65 65 64 64 64 64 64 64 64 64 63 62 61 62 62 61 60 60 60 59 59 58 58 57 56 56 55 55 55 55 55 56 56 56 56 56 55 55 55 54 55 53 53
25 22 17 21 21 25 26 26 28 27 26 27 24 27 27 27 25 27 26 25 24 24 24 26 28 28 29 28 27 28 30 29 29 30 32 34 35 35 34 35 36 37 39 40 42 44 46 48 51 50 52 55 57 59 65 65 64 64 64 64 64 64 64 63 63 62 62 61 61 61 61 60 59 59 59 58 58 58 57 57 56 55 56 56 56 56 55 54 54 54 55 53 54 53 53 54 53
24 24 23 22 21 23 26 27 29 26 26 28 26 24 25 26 26 27 26 24 23 22 22 23 24 25 26 26 26 25 25 28 30 31 34 32 33 33 32 33 35 35 36 37 39 41 44 46 48 49 51 52 54 56 58 64 65 64 64 64 63 64 63 63 63 63 62 62 61 61 61 60 59 59 59 58 58 58 58 57 57 56 56 56 56 55 56 55 55 54 55 53 55 54 54 54 54
22 22 24 22 21 21 25 27 28 26 27 27 27 24 25 26 26 27 27 25 23 22 21 21 21 23 23 24 24 23 23 23 26 26 26 30 31 31 31 31 32 33 34 35 37 38 40 43 46 47 49 51 52 54 56 59 63 65 64 64 63 62 63 63 63 62 62 62 62 61 60 60 59 59 59 58 58 58 58 57 57 57 57 56 55 55 56 55 55 55 55 54 54 53 53 54 54
25 18 20 22 22 23 25 28 28 26 28 28 25 24 25 26 25 26 28 25 23 22 22 21 21 21 22 22 22 22 21 21 22 22 23 24 27 31 29 28 29 31 31 32 34 36 37 41 43 43 46 49 52 53 55 57 60 64 64 64 64 63 62 62 62 62 62 62 61 62 61 60 60 60 59 58 58 57 58 58 58 57 57 56 56 55 55 55 55 55 54 55 54 54 53 54 53
25 22 20 22 22 23 23 27 29 28 27 27 27 25 26 26 25 25 26 27 25 23 22 22 21 20 20 19 20 20 19 19 19 20 21 22 22 26 29 27 27 29 30 30 32 34 35 36 39 43 44 47 50 51 53 55 57 60 63 62 60 60 60 60 60 62 62 62 61 62 61 61 61 60 60 59 58 58 57 57 57 57 56 56 56 55 55 55 55 55 54 54 54 55 53 53 53
23 23 22 23 23 23 23 26 28 28 26 25 26 26 26 27 26 24 24 26 24 22 22 22 21 20 20 18 17 17 17 17 17 18 19 20 22 23 26 29 26 26 29 29 30 32 34 35 36 40 41 44 48 50 51 54 55 57 56 55 55 55 55 55 56 55 54 54 55 56 58 60 60 60 60 60 59 59 58 57 57 56 56 56 56 56 56 55 55 54 54 54 54 54 54 53 53
24 24 24 24 24 22 23 25 27 27 27 25 25 25 25 26 27 24 24 25 26 22 21 21 21 20 20 19 17 16 15 15 15 16 20 20 21 22 21 24 24 25 25 27 28 30 31 33 36 37 40 42 44 47 50 52 53 54 54 53 53 52 52 53 53 53 52 52 52 52 53 53 54 56 60 60 60 60 59 57 57 57 57 56 56 56 56 55 55 54 54 54 52 54 54 54 54
23 24 24 25 25 25 24 26 28 28 25 25 25 24 25 26 27 26 25 25 25 24 20 20 21 20 20 19 18 16 16 15 16 18 22 21 22 23 20 20 21 22 23 25 27 28 29 31 33 35 37 40 42 45 47 49 50 51 50 50 49 50 50 50 51 51 50 50 50 50 51 50 50 52 52 55 58 59 59 58 58 57 57 56 56 56 56 56 55 54 54 54 54 53 52 54 53
25 24 23 24 24 26 27 28 30 32 25 24 24 24 24 25 26 27 25 25 25 25 23 19 18 19 20 18 18 17 16 15 21 17 18 21 23 20 19 19 20 20 21 22 23 25 27 28 30 32 34 37 40 41 44 46 47 48 48 48 47 48 48 48 48 49 49 49 48 49 48 48 48 48 50 51 52 53 55 58 59 58 58 57 57 56 56 56 56 56 55 55 54 54 53 53 52
24 24 23 25 27 26 28 27 30 25 25 22 23 23 24 24 26 27 27 26 26 25 25 23 18 18 18 19 18 16 17 21 19 15 14 18 18 22 20 18 22 18 21 21 22 23 24 26 28 29 31 34 37 40 41 44 46 48 47 47 46 46 46 46 46 47 48 47 47 47 47 46 46 46 47 49 50 50 51 53 54 55 57 58 57 57 57 56 56 56 56 55 55 55 54 52 52
21 23 24 25 25 29 28 30 32 31 23 21 22 22 23 23 24 26 27 29 29 28 25 24 23 18 17 18 18 16 16 15 15 13 13 13 18 19 18 17 17 18 19 20 21 22 23 24 26 28 29 31 34 37 40 41 43 45 46 46 46 45 46 46 46 47 47 46 45 46 46 45 45 44 45 47 47 48 49 50 51 53 52 53 55 57 58 58 57 57 56 56 55 54 55 52 52
20 20 19 20 24 26 24 28 30 26 24 21 23 21 21 23 23 25 28 30 31 30 27 25 25 21 17 17 18 17 14 14 12 12 12 12 14 14 16 17 16 18 19 18 20 22 23 24 23 25 27 28 31 33 37 39 41 43 43 44 43 42 43 44 44 45 45 44 43 44 44 44 44 44 44 44 46 46 47 48 49 50 50 51 52 51 51 51 52 55 57 56 56 56 54 54 54
19 21 18 20 22 23 28 24 28 28 29 28 28 25 21 23 22 23 25 28 29 31 27 24 24 23 22 21 19 17 14 12 12 12 13 13 13 14 15 17 17 17 18 18 20 21 24 21 23 24 25 26 28 31 32 35 37 38 40 39 40 40 40 42 42 42 42 42 41 42 42 42 42 43 43 43 45 44 45 45 47 48 48 48 49 49 48 49 50 51 51 52 55 56 56 55 54
14 17 17 17 19 21 25 27 25 25 25 26 27 22 18 21 22 23 24 26 24 29 26 24 23 22 21 18 16 16 19 15 12 11 12 13 14 14 15 16 17 17 17 19 20 20 20 21 22 23 24 25 25 27 30 31 33 34 35 34 33 33 35 37 38 40 40 40 40 41 41 40 40 41 42 42 43 44 43 44 45 46 46 46 47 47 47 47 48 48 50 51 51 52 53 55 56
13 17 20 22 22 24 24 27 28 21 17 18 23 18 7 20 21 22 24 23 23 25 26 24 23 24 22 20 16 14 13 14 14 13 12 13 14 14 14 15 17 17 17 19 19 19 19 21 21 22 24 24 27 25 26 29 29 31 34 33 32 33 33 36 39 40 38 38 37 37 37 37 37 37 38 39 41 42 42 43 44 45 45 45 45 45 45 45 46 47 48 49 49 50 51 49 51
13 18 23 24 24 24 24 24 21 18 21 20 16 17 13 16 18 22 23 23 24 25 24 24 23 24 24 21 18 14 14 14 16 14 12 13 14 15 15 15 17 17 18 18 19 20 18 19 20 21 22 24 23 25 23 27 25 25 28 30 31 31 33 34 35 35 34 34 33 33 34 34 33 34 34 34 35 37 40 41 41 42 43 43 44 43 44 45 46 46 46 46 48 49 49 48 49
14 22 28 25 25 25 22 20 20 21 18 14 18 17 13 13 19 22 22 20 21 22 23 24 24 22 23 22 21 16 14 15 14 14 12 12 14 15 16 16 17 19 19 19 18 18 19 19 19 19 20 21 22 23 24 23 26 23 22 23 24 27 27 28 29 29 28 28 29 29 27 28 28 28 30 31 32 33 36 37 38 40 41 41 42 41 42 42 44 44 44 44 45 47 48 49 49
17 22 28 27 25 25 25 22 23 20 9 8 13 14 9 9 17 21 23 22 20 21 24 24 25 24 24 23 22 21 18 19 19 15 15 15 15 15 16 17 17 19 20 22 18 19 19 18 18 19 19 20 21 21 22 23 23 24 21 20 20 21 22 21 22 23 24 24 23 23 24 24 23 22 24 25 26 29 32 34 35 36 37 38 39 39 39 40 42 42 43 44 45 45 46 46 44
21 24 23 22 20 20 19 14 17 7 0 10 15 14 9 3 13 18 20 23 19 22 23 25 26 26 25 26 24 23 21 21 20 17 17 17 16 16 17 16 17 18 20 20 19 18 18 19 17 18 19 19 20 20 21 22 23 23 22 21 20 19 20 20 20 21 21 20 19 19 20 21 21 22 21 21 23 24 26 32 31 35 36 36 36 36 38 39 41 42 41 43 43 43 41 40 40
21 20 19 20 19 10 12 1 1 -1 -5 9 15 16 14 2 12 16 22 23 23 22 21 22 24 24 25 27 27 26 25 25 23 21 19 19 18 16 16 16 17 17 18 19 19 19 19 18 18 17 19 19 19 20 20 21 22 23 22 22 21 20 19 20 19 20 21 20 20 20 20 20 19 21 20 20 20 21 23 22 23 24 28 28 31 33 34 37 39 40 41 42 42 41 41 40 39
18 18 18 10 3 -2 0 -3 -2 -12 -3 14 18 16 6 10 12 12 15 20 22 22 20 21 23 23 24 26 26 26 26 26 25 23 22 20 20 19 18 18 18 18 19 19 20 20 19 17 17 17 18 20 20 19 19 19 20 21 23 22 22 22 20 20 19 20 20 21 20 20 20 20 19 21 20 20 20 20 22 20 20 20 20 22 25 27 31 33 35 37 39 39 39 38 39 40 39
13 12 3 1 -3 -19 -15 -12 -2 -3 2 8 16 14 11 12 12 14 14 17 20 19 19 23 22 22 22 24 26 25 25 25 24 24 23 23 21 20 21 20 19 20 19 20 21 22 20 18 17 18 18 20 21 20 20 19 20 20 21 22 23 22 21 21 20 20 20 21 23 20 21 21 20 20 20 20 21 21 21 21 21 20 21 20 22 22 24 27 32 33 36 38 37 36 36 37 38
12 13 10 3 -8 -7 -12 -8 -13 -13 -1 6 10 3 -0 9 10 19 16 17 19 18 20 23 24 23 23 23 24 24 24 23 23 22 22 21 21 20 20 21 19 19 20 21 21 21 21 18 18 17 17 19 21 21 20 20 20 20 21 22 23 24 23 22 22 24 21 21 22 21 21 22 22 20 23 21 23 21 21 20 21 20 21 20 21 21 23 20 22 23 26 31 30 28 29 31 33
15 17 17 7 -0 0 -4 -3 -7 -6 2 3 3 4 4 13 19 24 22 22 21 22 21 24 23 24 24 23 23 23 22 22 23 23 22 20 19 19 20 20 19 19 18 21 20 22 21 20 19 18 18 19 21 23 21 21 21 21 21 21 22 26 27 24 23 23 22 22 22 22 22 22 23 22 22 23 22 22 21 21 20 20 20 20 20 20 20 19 20 19 19 20 18 23 19 20 23
3 12 -3 7 14 10 -7 1 2 8 -2 -6 -5 4 6 13 10 19 21 21 20 20 20 21 23 23 23 23 23 23 23 23 23 23 22 19 18 18 19 19 19 20 22 17 18 20 20 20 19 18 18 18 20 23 22 21 22 21 21 21 22 22 22 22 22 21 22 22 23 23 23 23 24 24 25 25 23 22 21 22 20 20 20 20 19 20 20 19 19 18 18 19 18 17 18 16 18
14 -1 4 17 19 13 3 -8 -15 -18 -21 -11 -1 0 1 -3 -5 17 20 20 20 19 19 19 21 22 22 23 23 24 24 23 23 22 21 20 17 19 18 19 18 18 18 18 18 19 22 21 20 17 18 17 19 21 23 22 22 22 22 21 21 23 23 23 23 23 23 22 22 23 23 24 23 26 26 27 23 22 22 25 20 20 20 20 19 19 20 19 19 18 18 18 19 18 16 16 18
8 5 9 6 -10 -6 -3 -9 -13 -17 -20 -15 -7 -3 -1 4 1 14 18 19 19 19 19 18 19 20 21 22 23 24 25 24 23 22 22 21 20 18 17 16 16 17 22 21 21 22 22 21 23 19 16 18 18 21 23 22 23 23 23 23 21 23 23 23 24 25 23 23 23 23 24 24 23 26 25 24 22 22 22 22 21 20 20 19 19 19 20 18 18 17 19 18 19 17 16 16 16
15 16 11 10 10 -2 -5 -6 -11 -5 -19 -11 -5 -5 -8 4 5 15 15 19 19 18 19 19 19 19 19 21 22 23 24 25 25 23 22 21 19 17 16 15 14 15 16 18 19 21 19 19 22 22 23 20 20 19 23 20 22 22 22 21 21 22 24 23 23 23 22 23 23 24 24 23 24 26 25 25 23 23 23 22 21 21 21 19 19 19 19 18 17 17 17 19 18 17 17 16 16
12 14 8 10 2 4 9 -2 -3 -10 -16 -20 -19 -8 0 2 8 16 15 17 19 18 17 19 19 19 19 19 21 22 23 24 25 25 23 21 19 17 16 16 17 17 20 23 21 19 18 20 19 21 19 18 19 19 21 21 23 22 22 20 20 21 22 23 22 22 22 22 23 25 23 24 24 23 25 24 24 23 23 23 22 22 20 20 19 19 19 18 17 17 17 18 18 17 16 15 17
12 10 4 9 0 -10 -12 -4 -1 -10 -11 -16 -19 -5 1 0 14 18 18 19 19 19 17 17 18 19 20 20 20 21 22 23 25 25 24 22 19 17 16 16 19 20 18 17 18 19 18 18 18 20 20 21 19 20 21 22 22 23 20 21 20 21 22 22 21 21 24 23 23 23 22 23 21 23 24 24 24 23 23 23 22 21 20 20 20 19 19 18 17 17 17 21 20 16 15 15 16